Observations for Trim Market St
| Time | AQI | Temp °C | Hum % | Pres Pa | CO μg/m³ | H₂S μg/m³ | NO μg/m³ | NO₂ μg/m³ | O₃ μg/m³ | SO₂ μg/m³ | PM1 μg/m³ | PM2.5 μg/m³ | PM10 μg/m³ |
|---|---|---|---|---|---|---|---|---|---|---|---|---|---|
| Saturday 22 August 2026 | |||||||||||||
| 07:59 | 2 | 13.7 | 71 | 55,306 | 0.49 | 0 | 3.48 | 7.94 | 43.55 | 0 | 2.14 | 3 | 6.29 |
| 07:58 | 2 | 13.7 | 71 | 55,191 | 0.53 | 0 | 3.47 | 8.58 | 35.93 | 0 | 2.14 | 3.48 | 6.29 |
| 07:57 | 2 | 13.6 | 72 | 55,082 | 0.59 | 0 | 3.14 | 10.16 | 45.03 | 0 | 0.71 | 2.5 | 4.44 |
| 07:53 | 2 | 13.4 | 72 | 54,699 | 0.49 | 0 | 3.08 | 8.62 | 40.79 | 0 | 1.43 | 2.96 | 5.07 |
| 07:52 | 2 | 13.4 | 72 | 54,576 | 0.49 | 0 | 3.26 | 8.19 | 46.16 | 0 | 1.43 | 3.92 | 6.92 |
| 07:48 | 2 | 13.2 | 72 | 54,047 | 0.51 | 0 | 3.57 | 9.68 | 40.66 | 0 | 1.43 | 4.87 | 8.14 |
| 07:42 | 2 | 13 | 73 | 53,216 | 0.51 | 0 | 3.08 | 9.75 | 46.01 | 0 | 2.14 | 3.87 | 6.31 |
| 07:40 | 2 | 12.9 | 73 | 53,031 | 0.5 | 0 | 3.14 | 9.92 | 42.94 | 0 | 2.14 | 3.38 | 5.71 |
| 07:39 | 2 | 12.8 | 73 | 52,891 | 0.52 | 0 | 2.69 | 9.59 | 42.68 | 0 | 2.14 | 3.38 | 5.71 |
| 07:38 | 2 | 12.8 | 74 | 52,747 | 0.52 | 0 | 3.03 | 10.46 | 42.43 | 0 | 2.14 | 4.33 | 7.53 |
| 07:37 | 2 | 12.8 | 74 | 52,578 | 0.52 | 0 | 2.59 | 10.31 | 43.44 | 0 | 2.14 | 3.37 | 5.71 |
| 07:34 | 2 | 12.7 | 74 | 52,056 | 0.52 | 0 | 2.87 | 10.75 | 43.38 | 0 | 2.14 | 3.83 | 6.32 |
| 07:32 | 2 | 12.6 | 74 | 51,568 | 0.55 | 0 | 3.21 | 11.4 | 39.44 | 0 | 2.14 | 3.34 | 5.72 |
| 07:31 | 2 | 12.5 | 74 | 51,266 | 0.57 | 0 | 3.51 | 10.92 | 42.39 | 0 | 2.85 | 4.29 | 7.53 |
| 07:30 | 2 | 12.5 | 74 | 50,909 | 0.54 | 0 | 3.84 | 12.03 | 41.54 | 0 | 1.43 | 3.33 | 5.73 |
| 07:29 | 2 | 12.5 | 74 | 50,554 | 0.54 | 0 | 3.83 | 10.59 | 44.67 | 0 | 2.85 | 4.28 | 6.93 |
| 07:27 | 2 | 12.4 | 75 | 49,732 | 0.55 | 0 | 3.49 | 10.98 | 45.39 | 0 | 1.43 | 4.27 | 6.93 |
| 07:21 | 2 | 12.2 | 75 | 48,020 | 0.58 | 0 | 3.56 | 12.33 | 42.26 | 0 | 2.85 | 4.72 | 7.53 |
| 07:19 | 2 | 12 | 75 | 47,273 | 1.66 | 0 | 4.49 | 14.24 | 39.89 | 0 | 2.14 | 3.28 | 6.34 |
| 07:18 | 2 | 12 | 75 | 46,924 | 4.51 | 1.18 | 3.91 | 14.89 | 38.01 | 0 | 2.14 | 3.76 | 7.53 |